When you browse on this site, cookies collect data to enhance your experience and personalize the content and advertising you see.
Visit our Privacy Policy to learn more. By continuing to use the site, you agree to this use of cookies and data.
  • In Portugal
  • List of Countries
  • For 7 days
  • Water Temperature
  • Weather Map
  • Weather Widgets
  • user-avatar
    Login

    Hourly Weather Yerevan

    Today, 24 October, Thursday

    Time Temperature Precipitation Wind Pressure Humidity
    00:00 +14°C° 0 mm 1 mps 692 mmHg 60%
    01:00 +13°C° 0 mm 1 mps 692 mmHg 60%
    02:00 +13°C° 0 mm 1 mps 692 mmHg 59%
    03:00 +13°C° 0 mm 1 mps 692 mmHg 61%
    04:00 +12°C° 0 mm 1 mps 692 mmHg 62%
    05:00 +12°C° 0 mm 1 mps 692 mmHg 63%
    06:00 +12°C° 0 mm 1 mps 692 mmHg 63%
    07:00 +14°C° 0 mm 1 mps 693 mmHg 56%
    08:00 +15°C° 0 mm 1 mps 693 mmHg 49%
    09:00 +18°C° 0 mm 1 mps 693 mmHg 42%
    10:00 +20°C° 0 mm 1 mps 693 mmHg 40%
    11:00 +21°C° 0 mm 1 mps 693 mmHg 38%
    12:00 +22°C° 0 mm 1 mps 693 mmHg 36%
    13:00 +22°C° 0 mm 1 mps 693 mmHg 34%
    14:00 +23°C° 0 mm 1 mps 692 mmHg 33%
    15:00 +23°C° 0 mm 1 mps 692 mmHg 32%
    16:00 +21°C° 0 mm 1 mps 692 mmHg 36%
    17:00 +20°C° 0 mm 1 mps 692 mmHg 40%
    18:00 +18°C° 0 mm 1 mps 692 mmHg 45%
    19:00 +16°C° 0 mm 1 mps 692 mmHg 46%
    20:00 +16°C° 0 mm 1 mps 692 mmHg 48%
    21:00 +15°C° 0 mm 2 mps 692 mmHg 49%
    22:00 +15°C° 0 mm 1 mps 692 mmHg 51%
    23:00 +14°C° 0 mm 1 mps 692 mmHg 53%

    Tomorrow, 25 October, Friday

    Time Temperature Precipitation Wind Pressure Humidity
    00:00 +14°C° 0 mm 1 mps 692 mmHg 55%
    01:00 +13°C° 0 mm 1 mps 691 mmHg 57%
    02:00 +13°C° 0 mm 1 mps 691 mmHg 59%
    03:00 +12°C° 0 mm 1 mps 691 mmHg 60%
    04:00 +12°C° 0 mm 1 mps 691 mmHg 62%
    05:00 +11°C° 0 mm 1 mps 691 mmHg 63%
    06:00 +11°C° 0 mm 1 mps 691 mmHg 65%
    07:00 +13°C° 0 mm 1 mps 691 mmHg 57%
    08:00 +15°C° 0 mm 1 mps 692 mmHg 49%
    09:00 +19°C° 0 mm 1 mps 692 mmHg 42%
    10:00 +20°C° 0 mm 1 mps 692 mmHg 39%
    11:00 +21°C° 0 mm 1 mps 692 mmHg 36%
    12:00 +22°C° 0 mm 1 mps 691 mmHg 33%
    13:00 +23°C° 0 mm 1 mps 691 mmHg 32%
    14:00 +23°C° 0 mm 1 mps 691 mmHg 30%
    15:00 +24°C° 0 mm 1 mps 691 mmHg 29%
    16:00 +22°C° 0 mm 1 mps 690 mmHg 34%
    17:00 +20°C° 0 mm 1 mps 690 mmHg 38%
    18:00 +16°C° 0 mm 0 mps 690 mmHg 43%
    19:00 +16°C° 0 mm 1 mps 690 mmHg 44%
    20:00 +16°C° 0 mm 1 mps 690 mmHg 45%
    21:00 +15°C° 0 mm 1 mps 690 mmHg 47%
    22:00 +15°C° 0 mm 1 mps 690 mmHg 49%
    23:00 +14°C° 0 mm 1 mps 690 mmHg 51%

    Day after tomorrow, 26 October, Saturday

    Time Temperature Precipitation Wind Pressure Humidity
    00:00 +13°C° 0 mm 0 mps 690 mmHg 53%
    01:00 +13°C° 0 mm 1 mps 690 mmHg 54%
    02:00 +13°C° 0 mm 1 mps 690 mmHg 56%
    03:00 +12°C° 0 mm 1 mps 690 mmHg 57%
    04:00 +12°C° 0 mm 1 mps 690 mmHg 59%
    05:00 +12°C° 0 mm 1 mps 690 mmHg 60%
    06:00 +11°C° 0 mm 1 mps 690 mmHg 62%
    07:00 +14°C° 0 mm 1 mps 690 mmHg 54%
    08:00 +16°C° 0 mm 1 mps 691 mmHg 47%
    09:00 +19°C° 0 mm 1 mps 692 mmHg 40%
    10:00 +20°C° 0 mm 1 mps 692 mmHg 37%
    11:00 +21°C° 0 mm 1 mps 691 mmHg 34%
    12:00 +23°C° 0 mm 1 mps 691 mmHg 31%
    13:00 +23°C° 0 mm 1 mps 691 mmHg 29%
    14:00 +24°C° 0 mm 1 mps 691 mmHg 28%
    15:00 +24°C° 0 mm 1 mps 691 mmHg 26%
    16:00 +22°C° 0 mm 1 mps 691 mmHg 31%
    17:00 +20°C° 0 mm 1 mps 691 mmHg 37%
    18:00 +17°C° 0 mm 2 mps 691 mmHg 42%
    19:00 +16°C° 0 mm 2 mps 691 mmHg 44%
    20:00 +16°C° 0 mm 1 mps 691 mmHg 46%
    21:00 +15°C° 0 mm 1 mps 691 mmHg 49%
    22:00 +15°C° 0 mm 1 mps 691 mmHg 51%
    23:00 +14°C° 0 mm 1 mps 691 mmHg 52%

    , 27 October, Sunday

    Time Temperature Precipitation Wind Pressure Humidity
    00:00 +13°C° 0 mm 1 mps 691 mmHg 54%
    01:00 +13°C° 0 mm 1 mps 691 mmHg 57%
    02:00 +12°C° 0 mm 1 mps 691 mmHg 59%
    03:00 +12°C° 0 mm 1 mps 691 mmHg 61%
    04:00 +12°C° 0 mm 1 mps 691 mmHg 63%
    05:00 +11°C° 0 mm 1 mps 691 mmHg 65%
    06:00 +11°C° 0 mm 1 mps 691 mmHg 66%
    07:00 +13°C° 0 mm 1 mps 692 mmHg 59%
    08:00 +15°C° 0 mm 1 mps 692 mmHg 51%
    09:00 +18°C° 0 mm 1 mps 693 mmHg 43%
    10:00 +19°C° 0 mm 1 mps 693 mmHg 40%
    11:00 +20°C° 0 mm 1 mps 693 mmHg 38%
    12:00 +21°C° 0 mm 1 mps 693 mmHg 35%
    13:00 +22°C° 0 mm 1 mps 692 mmHg 33%
    14:00 +22°C° 0 mm 1 mps 692 mmHg 31%
    15:00 +23°C° 0 mm 1 mps 692 mmHg 29%
    16:00 +21°C° 0 mm 1 mps 692 mmHg 33%
    17:00 +17°C° 0 mm 0 mps 692 mmHg 38%
    18:00 +15°C° 0 mm 0 mps 691 mmHg 42%
    19:00 +14°C° 0 mm 0 mps 692 mmHg 43%
    20:00 +15°C° 0 mm 1 mps 692 mmHg 44%
    21:00 +15°C° 0 mm 1 mps 692 mmHg 45%
    22:00 +14°C° 0 mm 1 mps 692 mmHg 45%
    23:00 +13°C° 0 mm 1 mps 692 mmHg 46%

    27 October, Sunday

    Time Temperature Precipitation Wind Pressure Humidity
    00:00 +13°C° 0 mm 1 mps 691 mmHg 54%
    01:00 +13°C° 0 mm 1 mps 691 mmHg 57%
    02:00 +12°C° 0 mm 1 mps 691 mmHg 59%
    03:00 +12°C° 0 mm 1 mps 691 mmHg 61%
    04:00 +12°C° 0 mm 1 mps 691 mmHg 63%
    05:00 +11°C° 0 mm 1 mps 691 mmHg 65%
    06:00 +11°C° 0 mm 1 mps 691 mmHg 66%
    07:00 +13°C° 0 mm 1 mps 692 mmHg 59%
    08:00 +15°C° 0 mm 1 mps 692 mmHg 51%
    09:00 +18°C° 0 mm 1 mps 693 mmHg 43%
    10:00 +19°C° 0 mm 1 mps 693 mmHg 40%
    11:00 +20°C° 0 mm 1 mps 693 mmHg 38%
    12:00 +21°C° 0 mm 1 mps 693 mmHg 35%
    13:00 +22°C° 0 mm 1 mps 692 mmHg 33%
    14:00 +22°C° 0 mm 1 mps 692 mmHg 31%
    15:00 +23°C° 0 mm 1 mps 692 mmHg 29%
    16:00 +21°C° 0 mm 1 mps 692 mmHg 33%
    17:00 +17°C° 0 mm 0 mps 692 mmHg 38%
    18:00 +15°C° 0 mm 0 mps 691 mmHg 42%
    19:00 +14°C° 0 mm 0 mps 692 mmHg 43%
    20:00 +15°C° 0 mm 1 mps 692 mmHg 44%
    21:00 +15°C° 0 mm 1 mps 692 mmHg 45%
    22:00 +14°C° 0 mm 1 mps 692 mmHg 45%
    23:00 +13°C° 0 mm 1 mps 692 mmHg 46%

    28 October, Monday

    Time Temperature Precipitation Wind Pressure Humidity
    00:00 +13°C° 0 mm 1 mps 692 mmHg 46%
    01:00 +13°C° 0 mm 1 mps 692 mmHg 47%
    02:00 +12°C° 0 mm 1 mps 692 mmHg 49%
    03:00 +12°C° 0 mm 1 mps 691 mmHg 50%
    04:00 +12°C° 0 mm 1 mps 691 mmHg 51%
    05:00 +11°C° 0 mm 1 mps 691 mmHg 53%
    06:00 +11°C° 0 mm 1 mps 691 mmHg 54%
    07:00 +13°C° 0 mm 1 mps 692 mmHg 47%
    08:00 +14°C° 0 mm 0 mps 692 mmHg 40%
    09:00 +16°C° 0 mm 0 mps 692 mmHg 34%
    10:00 +19°C° 0 mm 1 mps 692 mmHg 32%
    11:00 +21°C° 0 mm 1 mps 692 mmHg 31%
    12:00 +22°C° 0 mm 1 mps 692 mmHg 29%
    13:00 +22°C° 0 mm 1 mps 691 mmHg 28%
    14:00 +22°C° 0 mm 1 mps 691 mmHg 27%
    15:00 +23°C° 0 mm 1 mps 691 mmHg 26%
    16:00 +21°C° 0 mm 1 mps 690 mmHg 31%
    17:00 +19°C° 0 mm 1 mps 690 mmHg 36%
    18:00 +15°C° 0 mm 1 mps 689 mmHg 40%
    19:00 +15°C° 0 mm 1 mps 689 mmHg 42%
    20:00 +15°C° 0 mm 1 mps 689 mmHg 43%
    21:00 +14°C° 0 mm 1 mps 689 mmHg 44%
    22:00 +14°C° 0 mm 1 mps 689 mmHg 45%
    23:00 +13°C° 0 mm 1 mps 689 mmHg 46%

    29 October, Tuesday

    Time Temperature Precipitation Wind Pressure Humidity
    00:00 +13°C° 0 mm 1 mps 689 mmHg 47%
    01:00 +12°C° 0 mm 1 mps 688 mmHg 50%
    02:00 +11°C° 0 mm 0 mps 688 mmHg 52%
    03:00 +10°C° 0 mm 0 mps 688 mmHg 54%
    04:00 +10°C° 0 mm 0 mps 688 mmHg 54%
    05:00 +11°C° 0 mm 1 mps 688 mmHg 55%
    06:00 +11°C° 0 mm 1 mps 688 mmHg 55%
    07:00 +13°C° 0 mm 1 mps 688 mmHg 47%
    08:00 +14°C° 0 mm 0 mps 689 mmHg 40%
    09:00 +17°C° 0 mm 0 mps 689 mmHg 32%
    10:00 +20°C° 0 mm 1 mps 689 mmHg 30%
    11:00 +21°C° 0 mm 1 mps 689 mmHg 27%
    12:00 +23°C° 0 mm 1 mps 689 mmHg 25%
    13:00 +23°C° 0 mm 1 mps 689 mmHg 23%
    14:00 +24°C° 0 mm 1 mps 688 mmHg 22%
    15:00 +24°C° 0 mm 1 mps 688 mmHg 21%
    16:00 +22°C° 0 mm 1 mps 688 mmHg 24%
    17:00 +19°C° 0 mm 2 mps 688 mmHg 27%
    18:00 +18°C° 0 mm 2 mps 688 mmHg 31%
    19:00 +17°C° 0 mm 2 mps 688 mmHg 32%
    20:00 +16°C° 0 mm 2 mps 688 mmHg 33%
    21:00 +16°C° 0 mm 1 mps 688 mmHg 34%
    22:00 +15°C° 0 mm 1 mps 688 mmHg 36%
    23:00 +15°C° 0 mm 1 mps 688 mmHg 38%
    Show more